Regional Weather Roundup
Issued by NWS Jackson, KY

Home | Current Version | Previous Version | Graphics & Text | Print | Product List | Glossary Off
Versions: 1 2 3 4 5 6 7 8 9 10 11 12 13 14 15 16 17 18 19 20 21 22 23 24 25 26 27 28 29 30 31 32 33 34 35 36 37 38 39 40 41 42 43 44 45 46 47 48 49 50

000
ASUS43 KJKL 261710
RWRJKL

EAST KENTUCKY HOURLY WEATHER ROUNDUP
NATIONAL WEATHER SERVICE JACKSON KY
100 PM EDT FRI MAY 26 2017

NOTE: "FAIR" INDICATES FEW OR NO CLOUDS BELOW 12,000 FEET WITH
NO SIGNIFICANT WEATHER AND/OR OBSTRUCTIONS TO VISIBILITY.

* THESE REPORTS ARE NOT UNDER NWS QUALITY CONTROL AND MAY NOT
  REPORT WEATHER SUCH AS PRECIPITATION AND FOG.

KYZ079-080-083-085-087-088-110-112-115-119-120-261800
...EASTERN KENTUCKY...

CITY           SKY/WX    TMP DP  RH WIND       PRES   REMARKS
JACKSON        CLOUDY    70  56  61 VRB7      30.01R
LONDON         MOSUNNY   73  51  46 W12       30.03R
SOMERSET*      SUNNY     72  52  49 S5        30.03F
MONTICELLO*    MOSUNNY   76  59  55 W15G21    30.04S
WILLIAMSBURG*  MOSUNNY   72  54  53 SW6       30.03S
MIDDLESBORO*   MOSUNNY   74  54  49 NW9       30.03S
HARLAN APT*    PTSUNNY   72  50  46 SW6       30.04R
PIKE CO APT*   PTSUNNY   69  55  60 CALM      30.00S
BIG SANDY APT* MOSUNNY   72  56  57 W13G18    29.99S
MOREHEAD APT*  PTSUNNY   73  54  49 W8G18     29.99S
ASHLAND*       PTSUNNY   73  61  64 NW6       29.93S
$$

KYZ035-036-041-042-044-050-067-078-099-261800
...CENTRAL KENTUCKY...

CITY           SKY/WX    TMP DP  RH WIND       PRES   REMARKS
MT STERLING*   MOSUNNY   73  55  53 W9G20     30.00S
FLEMING/MASON* PTSUNNY   73  56  55 W13       29.97S
DANVILLE*      CLOUDY    73  55  53 SW12      30.01F
LEXINGTON      MOSUNNY   74  56  53 SW9       29.98F
FRANKFORT      MOSUNNY   75  55  49 SW9       29.95F
LOUISVILLE     PTSUNNY   78  59  51 SW10      29.92F
LEBANON*       PTSUNNY   75  57  53 SW8       29.98F
GLASGOW*       MOSUNNY   76  59  55 SW8       29.97F
BOWLING GREEN  PTSUNNY   77  62  59 S13G18    29.95F
$$

KYZ091>093-OHZ055-061-077-WVZ005-015-034-035-042-261800
...SOUTHERN OHIO/WEST VIRGINIA...

CITY           SKY/WX    TMP DP  RH WIND       PRES   REMARKS
COVINGTON      MOSUNNY   74  56  53 W9        29.93F
COLUMBUS       PTSUNNY   71  56  58 W14       29.89R
DAYTON         PTSUNNY   70  55  59 W14G21    29.92F
WILMINGTON     PTSUNNY   71  58  63 W15G25    29.93S
HUNTINGTON     MOSUNNY   74  56  53 W13G20    29.94S
CHARLESTON     PTSUNNY   72  56  57 W15G23    29.94S
PINEVILLE*     PTSUNNY   70  53  54 MISG      30.03S
BECKLEY        MOSUNNY   66  51  58 W14G23    29.98S
BLUEFIELD      MOSUNNY   63  48  58 W8G26     30.01S
LOGAN CO APT*  PTSUNNY   68  54  60 VRB3G14   29.97S
$$

VAZ002-007-008-TNZ017-027-036-066-071-261800
...SOUTHWEST VIRGINIA/EAST TENNESSEE...

CITY           SKY/WX    TMP DP  RH WIND       PRES   REMARKS
WISE*            N/A     68  48  49 CALM      30.06R
JONESVILLE*      N/A     73  54  49 SW8       30.05S
ABINGDON*      SUNNY     70  54  56 W13G18    30.03R
BRISTOL        PTSUNNY   71  53  52 W8        30.03R
MORRISTOWN*    MOSUNNY   72  54  53 W10G16    30.03S
SEVIERVILLE*   SUNNY     75  54  46 W9        30.03S
KNOXVILLE      MOSUNNY   73  52  47 W8        30.04R
LAFOLLETTE*    SUNNY     75  52  43 VRB7      30.06S
OAK RIDGE      SUNNY     75  53  46 VRB5      30.05R
CROSSVILLE     CLOUDY    70  56  61 W8        30.08R
NASHVILLE      MOSUNNY   80  62  54 S10G18    29.97F
$$

...KEY TO REMARKS...
VSB - VISIBILITY IN MILES
WCI - WIND CHILL INDEX
HX  - HEAT INDEX

$$



USA.gov is the U.S. government's official web portal to all federal, state and local government web resources and services.